SCP
0 0 0 0 0 0 0 0 0 0 0 0 0 0 0 0 0 0 0 0 0 0 0 0 0 0 0 0 0 0 0 0 1 2 3 3 2 2 2 1 1 1 1 1
0 0 0 0 0 0 0 0 0 0 0 0 0 0 0 0 0 0 0 0 0 0 0 0 0 0 0 0 0 0 0 0 0 2 3 3 3 3 3 2 1 1 1 1
0 0 0 0 0 0 0 0 0 0 0 0 0 0 0 0 0 0 0 0 0 0 0 0 0 0 0 0 0 0 0 0 0 1 2 4 6 5 4 3 2 1 1 1
0 0 0 0 0 0 0 0 0 0 0 0 0 0 0 0 0 0 0 0 0 0 0 0 0 0 0 0 0 0 0 0 0 1 2 2 3 3 3 3 3 2 1 1
0 0 0 0 0 0 0 0 0 0 0 0 0 0 0 0 0 0 0 0 0 0 0 0 0 0 0 0 0 0 1 0 0 1 1 2 2 2 3 4 2 2 1 1
0 0 0 0 0 0 0 0 0 0 0 0 0 0 0 0 0 0 0 0 0 0 0 0 0 0 0 0 0 0 0 2 1 1 1 1 1 3 3 3 3 2 1 1
0 0 0 0 0 0 0 0 0 0 0 0 0 0 0 0 0 0 0 0 0 0 0 0 0 0 0 0 0 0 0 1 2 1 1 0 1 2 1 2 3 2 1 1
0 0 0 0 0 0 0 0 0 0 0 0 0 0 0 0 0 0 0 0 0 0 0 0 0 0 0 0 0 0 0 0 0 0 0 0 0 2 3 1 3 2 1 1
0 0 0 0 0 0 0 0 0 0 0 0 0 0 0 0 0 0 0 0 0 0 0 0 0 0 0 0 0 0 0 0 0 0 1 1 1 1 1 0 0 0 1 0
0 0 0 0 0 0 0 0 0 0 0 0 0 0 0 0 0 0 0 0 0 0 0 -0 0 0 0 0 0 0 0 0 0 0 0 0 0 1 0 0 0 0 0 0
0 0 0 0 0 0 0 0 0 0 0 0 0 0 0 0 0 0 0 0 -0 -0 -0 -0 0 0 0 0 0 0 0 0 0 0 0 0 0 0 0 0 0 0 0 0
0 0 0 0 0 0 0 0 0 0 0 0 0 0 0 0 0 0 0 0 0 0 -0 -0 -0 -0 0 0 0 0 0 0 0 0 0 0 0 0 0 0 0 0 0 0
0 0 0 0 0 0 0 0 0 0 0 0 0 0 0 0 0 0 0 0 0 0 0 0 -0 -0 0 0 0 0 0 0 0 0 0 0 0 0 0 0 0 0 0 0
0 0 0 0 0 0 0 0 0 0 0 0 0 0 0 0 0 0 0 0 0 0 0 -0 -0 -0 -0 0 0 0 0 0 0 0 0 0 0 0 0 0 0 0 0 0
0 0 0 0 0 0 0 0 0 0 0 0 0 0 0 0 0 0 0 0 0 0 0 0 0 0 0 0 0 0 0 0 0 0 0 0 0 0 0 0 0 0 0 0
0 0 0 0 0 0 0 0 0 0 0 0 0 0 -0 0 0 0 0 0 0 0 0 0 0 0 0 0 0 0 0 0 0 0 0 0 0 0 0 0 0 0 0 0
0 0 0 0 0 0 0 0 0 0 0 0 0 0 0 0 0 0 0 0 0 0 0 0 0 0 0 0 0 0 0 0 0 0 0 0 0 0 0 0 0 0 0 0
0 0 0 0 0 0 0 0 0 0 0 0 0 0 0 0 0 0 0 0 -0 0 0 -0 0 0 0 0 0 0 0 0 0 0 0 0 0 0 0 0 0 0 0 0
0 0 0 0 0 0 0 0 0 0 -0 0 0 0 0 0 0 0 0 0 -0 0 0 -0 -0 0 0 0 0 0 0 0 0 0 0 0 0 0 0 0 0 0 0 0
0 0 0 0 -0 0 0 0 0 0 0 0 0 0 0 0 0 0 -0 -0 -0 -0 0 -0 -0 0 -0 -0 -0 0 0 0 0 0 0 0 0 0 0 0 0 0 0 0
0 0 0 -0 0 0 0 0 0 0 0 0 0 0 0 0 0 -0 0 0 -0 -0 -0 -0 0 0 0 -0 0 0 0 0 0 0 0 0 0 0 0 0 0 0 0 0
0 0 -0 0 0 0 -0 0 0 0 0 0 0 0 0 0 -0 -0 -0 -0 -0 -0 -0 -0 -0 0 0 0 0 0 0 0 0 0 0 0 0 0 0 0 0 0 0 0
0 -0 -0 -0 0 0 -0 0 0 0 0 -0 0 0 0 -0 -0 -0 0 -0 -0 -0 -0 -0 -0 0 0 0 0 0 0 0 0 0 0 0 0 0 0 0 0 0 0 0
0 0 0 0 0 -0 -0 0 0 0 0 0 0 0 -0 -0 0 0 0 -0 -0 -0 -0 0 -0 -0 0 0 0 0 0 0 0 0 0 0 0 0 0 0 0 0 0 0
0 0 0 -0 0 0 -0 -0 0 0 0 0 0 0 0 -0 -0 -0 -0 -0 -0 -0 -0 0 -0 0 0 0 0 0 0 0 0 0 0 0 0 0 0 0 0 0 0 0
0 0 0 -0 0 0 0 0 0 0 0 0 0 0 0 -0 -0 -0 -0 -0 -0 -0 0 0 0 0 0 0 0 0 0 0 0 0 0 0 0 0 0 0 0 0 0 0
Wind_Speed_500mb
8 16 21 22 21 25 26 32 40 35 31 31 31 32 30 36 36 17 6 15 25 31 33 34 35 33 33 28 39 46 42 45 46 55 55 56 55 55 48 44 37 34 34 32
11 27 27 16 23 25 29 35 39 33 15 12 32 36 34 29 4 9 11 18 24 31 35 37 41 40 38 35 32 36 51 49 48 53 57 58 54 50 53 42 41 39 39 36
26 9 6 8 12 21 27 33 36 36 31 30 31 36 12 18 22 13 18 22 27 34 36 38 43 44 43 42 40 32 44 59 50 52 50 46 48 55 62 54 48 46 44 39
17 5 17 24 29 25 32 22 31 30 22 23 4 19 24 21 18 13 19 24 35 37 39 39 40 44 51 53 42 36 26 45 52 48 55 69 77 72 68 63 57 50 49 44
4 9 14 20 24 18 25 5 20 26 28 30 40 16 29 13 28 9 20 31 30 33 38 42 45 43 45 52 54 37 24 15 42 45 52 54 56 54 59 70 62 56 54 50
29 4 9 23 13 19 15 19 27 23 24 30 44 35 29 22 7 8 15 24 31 35 37 40 42 45 46 49 63 46 29 14 10 31 44 47 46 52 53 75 69 61 57 53
14 26 6 5 15 17 19 23 19 21 20 30 12 17 26 16 12 11 12 20 29 36 44 48 50 50 54 52 63 61 50 19 1 17 32 36 32 54 56 64 76 65 62 55
27 37 12 10 11 15 19 28 24 25 26 27 4 15 1 20 17 10 12 21 30 42 46 50 53 49 50 53 53 65 64 39 18 17 30 29 40 54 58 58 56 62 57 49
25 29 7 2 4 5 9 21 13 19 19 14 20 14 12 15 8 5 19 29 37 43 44 45 54 51 54 61 43 50 55 47 25 18 20 30 41 46 53 60 36 19 38 40
16 29 7 4 5 7 14 6 9 8 11 13 18 27 14 15 4 21 34 44 44 42 46 46 47 49 47 48 45 34 37 35 40 14 14 27 31 31 43 45 58 37 36 30
11 10 11 2 13 16 10 12 7 6 4 9 8 8 11 14 9 31 42 50 50 47 43 48 49 47 40 39 40 33 35 27 29 26 6 16 28 42 34 49 48 48 33 26
8 9 22 22 1 7 5 10 8 7 9 6 5 14 8 10 34 48 55 60 62 56 51 44 42 45 44 34 32 24 21 23 16 10 10 25 33 33 34 29 32 42 42 37
5 11 12 11 13 6 11 13 12 15 10 24 14 8 4 32 41 51 56 60 60 59 59 52 44 40 38 34 31 31 20 14 17 6 8 13 21 26 29 33 43 44 48 43
4 14 22 20 5 3 6 14 15 18 13 13 21 31 31 32 36 47 56 57 55 59 59 55 47 36 34 31 30 30 23 21 19 18 16 18 21 23 23 26 31 39 43 34
10 13 21 27 27 21 22 17 23 23 22 15 19 13 27 30 31 46 53 50 57 67 70 62 47 35 32 30 27 26 28 21 22 21 25 28 28 30 24 23 43 44 33 35
12 6 13 21 14 20 26 25 26 30 29 24 29 33 27 22 36 41 44 47 52 68 71 58 38 28 30 29 25 26 24 22 19 21 30 28 33 29 33 35 44 39 31 37
11 11 10 15 5 11 19 26 29 24 16 24 20 13 19 22 30 37 38 43 48 55 55 35 22 23 26 24 23 29 30 22 21 23 36 28 42 44 35 32 31 29 33 34
13 18 5 6 6 9 8 5 5 20 12 24 25 18 17 24 33 27 31 36 34 52 48 32 22 20 25 25 28 34 27 20 14 36 41 43 39 38 34 30 27 30 29 31
19 16 5 7 11 12 5 8 13 20 16 14 15 10 17 26 31 13 26 31 34 31 42 28 25 27 34 37 37 27 18 18 15 42 53 51 43 38 33 30 34 34 38 40
9 8 10 6 7 6 9 13 7 6 19 21 10 13 19 27 18 17 43 34 36 33 36 34 27 31 46 44 42 27 19 19 17 32 52 54 47 39 37 40 42 41 41 42
12 7 19 14 8 11 10 20 9 8 3 8 4 13 19 17 29 39 41 33 28 33 27 19 24 39 44 53 37 33 21 27 25 44 66 57 48 41 43 43 49 49 48 47
21 18 10 8 8 14 22 15 11 7 7 3 9 12 19 26 36 35 28 25 28 31 27 21 39 46 53 53 48 38 36 29 28 37 58 52 47 48 49 53 55 56 54 60
15 9 9 17 10 2 34 6 15 9 9 6 10 15 19 25 33 34 34 29 29 29 24 34 37 58 67 62 57 42 45 33 32 46 60 55 52 52 52 55 59 62 65 70
11 13 6 8 15 26 20 21 20 23 21 16 12 21 21 27 34 33 30 29 31 30 27 50 50 68 81 78 71 37 45 35 42 61 66 62 54 55 55 51 57 66 74 81
5 24 16 11 17 12 26 26 20 26 22 12 18 20 20 28 27 22 28 28 29 27 32 45 48 72 74 93 66 33 47 45 69 72 71 65 58 61 58 55 62 71 76 80
19 12 14 8 14 7 4 13 3 5 17 15 14 14 19 21 18 21 23 22 25 30 38 40 52 65 93 88 20 37 52 47 63 78 74 69 65 66 65 76 80 79 70 65
Wind_Direction_500mb
208 240 244 265 255 280 275 272 275 281 288 277 278 282 283 277 280 297 335 8 359 354 351 353 353 345 331 304 263 244 235 234 227 220 216 217 219 227 225 231 236 227 214 202
234 256 277 276 270 252 258 268 274 285 281 263 283 288 293 279 141 103 38 22 8 358 356 358 358 355 348 335 311 258 236 228 227 221 219 220 216 218 229 232 232 219 208 205
257 307 110 196 241 247 253 264 276 281 289 277 275 280 193 109 130 90 44 25 17 6 358 359 359 360 353 348 334 297 246 230 223 221 221 207 202 216 222 223 222 216 210 209
267 294 257 266 263 263 270 261 259 270 280 276 200 288 271 241 159 68 41 26 19 5 359 359 356 358 358 357 351 330 282 240 227 218 214 220 219 221 221 222 220 215 212 213
329 249 248 250 256 220 264 259 263 268 262 274 259 250 287 172 185 64 38 32 24 12 4 1 356 352 354 359 1 358 349 255 228 214 216 221 222 223 217 218 216 212 213 215
263 266 242 266 273 242 301 270 259 262 262 255 263 257 259 275 115 105 44 31 19 12 5 0 0 359 354 358 5 11 23 15 236 221 217 219 224 219 208 214 209 210 210 211
235 237 206 218 265 228 234 252 263 248 223 254 282 284 249 128 103 83 40 17 4 358 357 355 356 358 356 355 4 360 11 13 161 267 239 223 223 216 218 213 208 207 205 207
276 284 195 149 247 284 244 252 242 262 261 277 85 248 152 119 113 78 20 358 352 349 349 346 346 350 352 350 349 350 3 1 336 286 252 231 229 229 215 205 198 190 198 206
298 268 118 215 273 262 216 234 305 278 264 275 253 249 167 155 146 348 352 346 344 343 343 339 335 341 346 350 342 341 349 355 328 273 250 228 226 222 210 217 255 154 188 198
294 283 214 163 250 201 252 2 228 211 248 241 252 264 274 169 317 341 341 341 340 337 337 335 332 332 336 342 345 321 330 339 353 339 257 233 216 200 194 191 200 235 220 193
308 261 254 221 218 270 202 222 226 291 240 271 284 267 79 93 352 333 331 330 329 328 326 327 327 326 318 326 340 324 322 340 356 3 269 218 176 167 178 194 192 205 213 203
272 284 269 271 50 275 271 293 302 224 167 234 307 271 109 23 343 337 332 328 324 321 317 313 310 315 310 313 321 327 314 318 342 26 82 141 138 142 147 155 190 219 234 209
187 224 270 263 209 187 239 256 238 220 222 234 243 235 119 338 338 332 326 323 322 322 319 314 306 303 300 301 311 310 311 279 286 275 165 177 176 181 184 189 191 197 212 188
40 244 230 264 333 10 209 200 203 214 219 246 236 290 316 329 325 324 323 323 321 323 323 318 308 295 294 294 299 305 291 283 257 246 225 212 189 183 187 196 198 200 182 189
199 237 230 252 256 258 266 240 205 216 250 254 287 285 298 307 312 316 328 327 331 334 326 318 307 292 298 291 291 296 288 287 243 246 232 229 224 204 196 190 200 170 188 187
199 250 246 265 252 247 255 249 239 229 243 251 271 277 274 302 314 326 340 340 338 335 331 313 302 291 295 290 288 292 294 287 235 246 216 236 217 197 186 178 170 172 182 188
196 225 225 258 236 266 256 240 230 233 233 226 243 302 326 318 324 334 343 344 347 332 339 331 314 299 298 298 296 294 295 279 252 233 223 231 184 160 157 167 172 186 195 190
239 222 223 288 234 239 63 88 315 221 230 224 258 286 310 314 325 330 354 339 332 351 353 351 345 337 331 316 317 304 289 274 272 228 209 185 176 173 175 176 180 172 179 177
231 215 200 243 238 316 164 189 203 211 257 230 236 276 305 330 322 334 338 331 333 343 356 343 341 345 345 336 320 312 287 256 261 215 200 193 184 178 182 175 167 169 164 160
145 235 229 181 253 256 109 162 184 213 270 153 209 285 328 329 316 331 329 323 324 327 312 311 315 325 335 337 318 292 273 250 262 198 197 190 185 184 173 168 168 161 159 157
170 194 214 211 255 274 218 154 158 246 69 135 299 322 321 314 314 314 318 319 329 331 331 324 327 326 323 330 319 286 265 242 239 201 198 186 179 177 173 172 166 163 157 157
177 174 177 191 223 255 152 152 215 68 144 251 302 313 311 315 320 329 335 337 339 343 348 347 332 330 326 326 323 274 248 235 230 215 192 182 181 175 174 170 169 165 157 146
208 209 177 204 215 45 188 223 224 206 234 270 289 314 312 313 323 321 324 333 336 343 344 343 337 332 338 343 338 276 240 229 224 205 186 177 174 174 174 171 169 167 162 152
209 182 222 185 209 230 225 238 244 234 245 275 294 310 308 313 315 312 321 333 333 335 332 345 345 336 335 339 329 259 225 207 207 198 178 172 172 171 169 174 169 165 159 153
146 163 203 249 264 247 244 235 261 254 244 244 301 301 312 322 315 312 319 331 331 335 331 350 342 335 332 334 333 212 191 187 194 181 176 169 174 172 169 165 163 162 157 159
184 176 199 223 185 217 123 165 357 204 228 255 284 309 338 344 335 334 335 348 352 347 344 345 347 345 339 349 18 179 175 182 185 176 173 171 174 169 165 162 163 161 162 162
Wind_Speed_850mb
8 16 21 22 21 25 26 32 40 35 31 31 31 32 30 36 36 17 6 15 25 31 33 34 35 33 33 28 39 46 42 45 46 55 55 56 55 55 48 44 37 34 34 32
11 27 27 16 23 25 29 35 39 33 15 12 32 36 34 29 4 9 11 18 24 31 35 37 41 40 38 35 32 36 51 49 48 53 57 58 54 50 53 42 41 39 39 36
26 9 6 8 12 21 27 33 36 36 31 30 31 36 12 18 22 13 18 22 27 34 36 38 43 44 43 42 40 32 44 59 50 52 50 46 48 55 62 54 48 46 44 39
17 5 17 24 29 25 32 22 31 30 22 23 4 19 24 21 18 13 19 24 35 37 39 39 40 44 51 53 42 36 26 45 52 48 55 69 77 72 68 63 57 50 49 44
4 9 14 20 24 18 25 5 20 26 28 30 40 16 29 13 28 9 20 31 30 33 38 42 45 43 45 52 54 37 24 15 42 45 52 54 56 54 59 70 62 56 54 50
29 4 9 23 13 19 15 19 27 23 24 30 44 35 29 22 7 8 15 24 31 35 37 40 42 45 46 49 63 46 29 14 10 31 44 47 46 52 53 75 69 61 57 53
14 26 6 5 15 17 19 23 19 21 20 30 12 17 26 16 12 11 12 20 29 36 44 48 50 50 54 52 63 61 50 19 1 17 32 36 32 54 56 64 76 65 62 55
27 37 12 10 11 15 19 28 24 25 26 27 4 15 1 20 17 10 12 21 30 42 46 50 53 49 50 53 53 65 64 39 18 17 30 29 40 54 58 58 56 62 57 49
25 29 7 2 4 5 9 21 13 19 19 14 20 14 12 15 8 5 19 29 37 43 44 45 54 51 54 61 43 50 55 47 25 18 20 30 41 46 53 60 36 19 38 40
16 29 7 4 5 7 14 6 9 8 11 13 18 27 14 15 4 21 34 44 44 42 46 46 47 49 47 48 45 34 37 35 40 14 14 27 31 31 43 45 58 37 36 30
11 10 11 2 13 16 10 12 7 6 4 9 8 8 11 14 9 31 42 50 50 47 43 48 49 47 40 39 40 33 35 27 29 26 6 16 28 42 34 49 48 48 33 26
8 9 22 22 1 7 5 10 8 7 9 6 5 14 8 10 34 48 55 60 62 56 51 44 42 45 44 34 32 24 21 23 16 10 10 25 33 33 34 29 32 42 42 37
5 11 12 11 13 6 11 13 12 15 10 24 14 8 4 32 41 51 56 60 60 59 59 52 44 40 38 34 31 31 20 14 17 6 8 13 21 26 29 33 43 44 48 43
4 14 22 20 5 3 6 14 15 18 13 13 21 31 31 32 36 47 56 57 55 59 59 55 47 36 34 31 30 30 23 21 19 18 16 18 21 23 23 26 31 39 43 34
10 13 21 27 27 21 22 17 23 23 22 15 19 13 27 30 31 46 53 50 57 67 70 62 47 35 32 30 27 26 28 21 22 21 25 28 28 30 24 23 43 44 33 35
12 6 13 21 14 20 26 25 26 30 29 24 29 33 27 22 36 41 44 47 52 68 71 58 38 28 30 29 25 26 24 22 19 21 30 28 33 29 33 35 44 39 31 37
11 11 10 15 5 11 19 26 29 24 16 24 20 13 19 22 30 37 38 43 48 55 55 35 22 23 26 24 23 29 30 22 21 23 36 28 42 44 35 32 31 29 33 34
13 18 5 6 6 9 8 5 5 20 12 24 25 18 17 24 33 27 31 36 34 52 48 32 22 20 25 25 28 34 27 20 14 36 41 43 39 38 34 30 27 30 29 31
19 16 5 7 11 12 5 8 13 20 16 14 15 10 17 26 31 13 26 31 34 31 42 28 25 27 34 37 37 27 18 18 15 42 53 51 43 38 33 30 34 34 38 40
9 8 10 6 7 6 9 13 7 6 19 21 10 13 19 27 18 17 43 34 36 33 36 34 27 31 46 44 42 27 19 19 17 32 52 54 47 39 37 40 42 41 41 42
12 7 19 14 8 11 10 20 9 8 3 8 4 13 19 17 29 39 41 33 28 33 27 19 24 39 44 53 37 33 21 27 25 44 66 57 48 41 43 43 49 49 48 47
21 18 10 8 8 14 22 15 11 7 7 3 9 12 19 26 36 35 28 25 28 31 27 21 39 46 53 53 48 38 36 29 28 37 58 52 47 48 49 53 55 56 54 60
15 9 9 17 10 2 34 6 15 9 9 6 10 15 19 25 33 34 34 29 29 29 24 34 37 58 67 62 57 42 45 33 32 46 60 55 52 52 52 55 59 62 65 70
11 13 6 8 15 26 20 21 20 23 21 16 12 21 21 27 34 33 30 29 31 30 27 50 50 68 81 78 71 37 45 35 42 61 66 62 54 55 55 51 57 66 74 81
5 24 16 11 17 12 26 26 20 26 22 12 18 20 20 28 27 22 28 28 29 27 32 45 48 72 74 93 66 33 47 45 69 72 71 65 58 61 58 55 62 71 76 80
19 12 14 8 14 7 4 13 3 5 17 15 14 14 19 21 18 21 23 22 25 30 38 40 52 65 93 88 20 37 52 47 63 78 74 69 65 66 65 76 80 79 70 65
Wind_Direction_850mb
208 240 244 265 255 280 275 272 275 281 288 277 278 282 283 277 280 297 335 8 359 354 351 353 353 345 331 304 263 244 235 234 227 220 216 217 219 227 225 231 236 227 214 202
234 256 277 276 270 252 258 268 274 285 281 263 283 288 293 279 141 103 38 22 8 358 356 358 358 355 348 335 311 258 236 228 227 221 219 220 216 218 229 232 232 219 208 205
257 307 110 196 241 247 253 264 276 281 289 277 275 280 193 109 130 90 44 25 17 6 358 359 359 360 353 348 334 297 246 230 223 221 221 207 202 216 222 223 222 216 210 209
267 294 257 266 263 263 270 261 259 270 280 276 200 288 271 241 159 68 41 26 19 5 359 359 356 358 358 357 351 330 282 240 227 218 214 220 219 221 221 222 220 215 212 213
329 249 248 250 256 220 264 259 263 268 262 274 259 250 287 172 185 64 38 32 24 12 4 1 356 352 354 359 1 358 349 255 228 214 216 221 222 223 217 218 216 212 213 215
263 266 242 266 273 242 301 270 259 262 262 255 263 257 259 275 115 105 44 31 19 12 5 0 0 359 354 358 5 11 23 15 236 221 217 219 224 219 208 214 209 210 210 211
235 237 206 218 265 228 234 252 263 248 223 254 282 284 249 128 103 83 40 17 4 358 357 355 356 358 356 355 4 360 11 13 161 267 239 223 223 216 218 213 208 207 205 207
276 284 195 149 247 284 244 252 242 262 261 277 85 248 152 119 113 78 20 358 352 349 349 346 346 350 352 350 349 350 3 1 336 286 252 231 229 229 215 205 198 190 198 206
298 268 118 215 273 262 216 234 305 278 264 275 253 249 167 155 146 348 352 346 344 343 343 339 335 341 346 350 342 341 349 355 328 273 250 228 226 222 210 217 255 154 188 198
294 283 214 163 250 201 252 2 228 211 248 241 252 264 274 169 317 341 341 341 340 337 337 335 332 332 336 342 345 321 330 339 353 339 257 233 216 200 194 191 200 235 220 193
308 261 254 221 218 270 202 222 226 291 240 271 284 267 79 93 352 333 331 330 329 328 326 327 327 326 318 326 340 324 322 340 356 3 269 218 176 167 178 194 192 205 213 203
272 284 269 271 50 275 271 293 302 224 167 234 307 271 109 23 343 337 332 328 324 321 317 313 310 315 310 313 321 327 314 318 342 26 82 141 138 142 147 155 190 219 234 209
187 224 270 263 209 187 239 256 238 220 222 234 243 235 119 338 338 332 326 323 322 322 319 314 306 303 300 301 311 310 311 279 286 275 165 177 176 181 184 189 191 197 212 188
40 244 230 264 333 10 209 200 203 214 219 246 236 290 316 329 325 324 323 323 321 323 323 318 308 295 294 294 299 305 291 283 257 246 225 212 189 183 187 196 198 200 182 189
199 237 230 252 256 258 266 240 205 216 250 254 287 285 298 307 312 316 328 327 331 334 326 318 307 292 298 291 291 296 288 287 243 246 232 229 224 204 196 190 200 170 188 187
199 250 246 265 252 247 255 249 239 229 243 251 271 277 274 302 314 326 340 340 338 335 331 313 302 291 295 290 288 292 294 287 235 246 216 236 217 197 186 178 170 172 182 188
196 225 225 258 236 266 256 240 230 233 233 226 243 302 326 318 324 334 343 344 347 332 339 331 314 299 298 298 296 294 295 279 252 233 223 231 184 160 157 167 172 186 195 190
239 222 223 288 234 239 63 88 315 221 230 224 258 286 310 314 325 330 354 339 332 351 353 351 345 337 331 316 317 304 289 274 272 228 209 185 176 173 175 176 180 172 179 177
231 215 200 243 238 316 164 189 203 211 257 230 236 276 305 330 322 334 338 331 333 343 356 343 341 345 345 336 320 312 287 256 261 215 200 193 184 178 182 175 167 169 164 160
145 235 229 181 253 256 109 162 184 213 270 153 209 285 328 329 316 331 329 323 324 327 312 311 315 325 335 337 318 292 273 250 262 198 197 190 185 184 173 168 168 161 159 157
170 194 214 211 255 274 218 154 158 246 69 135 299 322 321 314 314 314 318 319 329 331 331 324 327 326 323 330 319 286 265 242 239 201 198 186 179 177 173 172 166 163 157 157
177 174 177 191 223 255 152 152 215 68 144 251 302 313 311 315 320 329 335 337 339 343 348 347 332 330 326 326 323 274 248 235 230 215 192 182 181 175 174 170 169 165 157 146
208 209 177 204 215 45 188 223 224 206 234 270 289 314 312 313 323 321 324 333 336 343 344 343 337 332 338 343 338 276 240 229 224 205 186 177 174 174 174 171 169 167 162 152
209 182 222 185 209 230 225 238 244 234 245 275 294 310 308 313 315 312 321 333 333 335 332 345 345 336 335 339 329 259 225 207 207 198 178 172 172 171 169 174 169 165 159 153
146 163 203 249 264 247 244 235 261 254 244 244 301 301 312 322 315 312 319 331 331 335 331 350 342 335 332 334 333 212 191 187 194 181 176 169 174 172 169 165 163 162 157 159
184 176 199 223 185 217 123 165 357 204 228 255 284 309 338 344 335 334 335 348 352 347 344 345 347 345 339 349 18 179 175 182 185 176 173 171 174 169 165 162 163 161 162 162